Location: Thollon
(46.3897°N, 6.7034°E)
Time: 09:09:11
(UTC+00:00)

Daily predictions for brighter satellites

Satellite Brightness Start Highest point End
(mag) Time Altitude Azimuth Time Altitude Azimuth Time Altitude Azimuth
Cosmos 1833 Rocket 2.9 19:47:28 10° NNW 19:53:06 77° WSW 19:58:41 10° SSE
Tsikada Rocket 4.4 19:47:21 10° SSW 19:53:29 68° W 19:59:38 10° N
Cosmos 1943 Rocket 3.9 19:51:59 10° ESE 19:54:31 13° E 19:57:03 10° ENE
STARLINK-1109 3.7 19:50:38 10° WNW 19:54:47 76° SSW 19:58:55 10° SE
STARLINK-1246 3.7 19:53:22 10° WSW 19:57:31 89° NW 20:01:41 10° ENE
STARLINK-1091 3.7 19:55:36 10° WNW 19:59:44 70° SW 20:03:50 10° SE
Cosmos 2082 Rocket 2.3 19:54:01 10° NNW 19:59:46 77° ENE 20:05:28 10° SSE
Cosmos 1420 Rocket 4.0 19:54:49 10° SSW 20:00:02 89° ESE 20:05:15 10° NNE
Cosmos 1452 Rocket 3.6 19:55:06 10° S 20:00:18 64° ESE 20:05:33 10° NNE
Cosmos 332 Rocket 4.1 19:55:56 10° S 20:00:39 49° ESE 20:05:22 10° NNE
BREEZE-M DEB 3.8 19:59:11 10° S 20:00:42 15° SE 20:02:46 10° E
DMSP B5D2-2 4.3 19:55:42 10° NNE 20:01:01 78° WNW 20:06:16 10° SSW
STARLINK-1097 4.5 19:57:55 10° NW 20:01:57 47° NNE 20:05:57 10° E
STARLINK-1224 3.7 19:58:20 10° WSW 20:02:29 84° NNW 20:06:39 10° ENE
Intercosmos 24 3.9 19:59:16 10° N 20:02:47 55° E 20:06:34 10° SSE
STARLINK-1072 3.8 20:00:37 10° WNW 20:04:44 65° SW 20:08:49 10° SE
MOS 1 Rocket 4.2 20:02:26 10° N 20:06:40 49° WNW 20:10:47 10° SW
Cosmos 1461 3.2 20:02:56 10° SSW 20:06:52 45° ESE 20:11:01 10° NE
STARLINK-1099 4.4 20:02:53 10° NW 20:06:56 49° NNE 20:10:58 10° E
STARLINK-1225 3.8 20:03:20 10° WSW 20:07:29 78° NNW 20:11:39 10° ENE
Okean 3 3.6 20:04:55 10° S 20:09:14 87° WNW 20:13:33 10° N
STARLINK-1096 3.9 20:05:36 10° WNW 20:09:42 60° SW 20:13:39 11° SE
Cosmos 2369 Rocket 4.0 20:07:54 10° ESE 20:10:25 13° E 20:12:55 10° ENE
SAR-Lupe-2 4.5 20:08:21 10° NE 20:11:35 30° E 20:14:47 10° SSE
STARLINK-1104 4.3 20:07:51 10° NW 20:11:55 51° NNE 20:15:58 10° E
STARLINK-1230 3.9 20:08:19 10° WSW 20:12:28 74° NNW 20:16:37 10° ENE
NOSS 2-2 (C) 4.2 20:10:21 10° S 20:13:14 23° ESE 20:16:16 10° ENE
STARLINK-1079 4.0 20:10:36 10° WNW 20:14:39 55° SW 20:18:26 12° SE
STARLINK-1144 4.2 20:12:50 10° NW 20:16:55 54° NNE 20:20:59 10° E
Cosmos 2221 Rocket 3.8 20:12:35 10° SSW 20:17:06 79° W 20:21:41 10° N
STARLINK-1243 4.0 20:13:20 10° WSW 20:17:28 69° NNW 20:21:36 10° ENE
SL-4 R/B 2.9 20:14:50 10° NW 20:17:28 27° WSW 20:19:56 10° S
SPOT 5 4.1 20:14:19 10° SE 20:18:56 32° ENE 20:23:38 10° N
STARLINK-1116 4.1 20:15:36 10° WNW 20:19:37 51° SW 20:23:13 13° SE
NOSS 8 (F) 4.1 20:17:13 10° SW 20:20:29 79° SE 20:23:31 10° NE
Meteor 1-13 Rocket 4.2 20:15:07 10° S 20:20:44 79° E 20:26:30 10° NNE
STARLINK-1103 4.1 20:17:48 10° WNW 20:21:54 57° NNE 20:25:59 10° ESE
STARLINK-1236 4.1 20:18:19 10° WSW 20:22:26 65° NNW 20:26:34 10° ENE
ERS-1 Rocket 3.7 20:19:40 11° SE 20:24:03 38° ENE 20:28:43 10° N
STARLINK-1101 4.0 20:22:47 10° WNW 20:26:54 60° NNE 20:31:00 10° ESE
Cosmos 1066 Rocket 4.4 20:23:17 10° SSE 20:28:26 48° E 20:33:33 10° NNE
STARLINK-1094 4.3 20:25:36 10° WNW 20:29:32 43° SW 20:32:47 14° SSE
USA 245 2.4 20:27:55 14° SSE 20:30:25 66° ENE 20:32:57 10° N
USA 238 DEB 4.4 20:24:24 10° NW 20:31:22 51° NE 20:38:25 11° ESE
USA 238 4.4 20:24:30 10° NW 20:31:28 51° NE 20:38:32 11° ESE
STARLINK-1102 3.9 20:27:46 10° WNW 20:31:54 64° NNE 20:35:48 11° ESE
STARLINK-1269 4.3 20:28:20 10° WSW 20:32:26 58° NNW 20:36:32 10° ENE
Cosmos 2278 Rocket 3.5 20:27:52 10° SW 20:33:18 45° NW 20:38:46 10° NNE
TSX-5 4.3 20:27:45 10° SSW 20:33:28 77° ESE 20:37:51 10° NNE
Resurs 01 Rocket 2.6 20:29:40 10° S 20:33:56 45° W 20:38:14 10° NNW
Okean 1 Rocket 3.4 20:29:58 10° N 20:34:21 53° ENE 20:37:54 15° SSE
STARLINK-1117 4.4 20:30:36 10° WNW 20:34:30 40° SW 20:37:34 15° SSE
Cosmos 1805 4.3 20:31:03 10° N 20:34:34 31° ENE 20:37:07 16° SE
Nadezhda 4 Rocket 4.2 20:28:59 10° SSE 20:34:54 53° E 20:40:49 10° NNE
Cosmos 1741 Rocket 4.1 20:29:44 10° NNW 20:34:58 78° WSW 20:39:48 12° SSE
Okean 2 Rocket 3.9 20:30:46 10° NNW 20:35:02 48° W 20:39:15 10° SSW
GPS 2-04 Rocket1 4.3 20:33:05 10° SW 20:35:05 14° S 20:35:58 13° SSE
STARLINK-1111 3.9 20:32:44 10° WNW 20:36:53 67° NNE 20:40:34 13° ESE
STARLINK-1200 4.4 20:33:19 10° WSW 20:37:24 55° NNW 20:41:29 10° ENE
MetOp-B 4.3 20:32:24 10° S 20:37:44 74° WSW 20:43:07 10° NNW
SL-8 R/B 3.7 20:37:02 10° WNW 20:41:52 88° SSW 20:46:17 12° ESE
STARLINK-1073 3.8 20:37:43 10° WNW 20:41:53 72° NNE 20:45:22 14° ESE
Cosmos 2279 Rocket 4.4 20:36:54 10° NNW 20:43:05 65° W 20:49:12 10° S
Cosmos 1850 Rocket 4.4 20:39:14 10° NNW 20:44:31 63° WSW 20:49:25 12° S
Cosmos 371 Rocket 4.3 20:40:27 10° SW 20:45:10 51° WNW 20:49:57 10° NNE
ATLAS 3B CENTAUR R/B 4.2 20:35:43 10° SW 20:46:22 25° S 20:50:57 16° SSE
SL-4 R/B 3.4 20:43:04 10° S 20:46:47 23° SE 20:50:34 10° E
STARLINK-1121 3.7 20:42:41 10° WNW 20:46:52 76° NNE 20:50:08 16° ESE
Cosmos 1110 Rocket 4.0 20:42:07 10° S 20:47:14 64° ESE 20:52:22 10° NNE
Terra 2.6 20:44:22 16° SE 20:47:44 38° ENE 20:52:07 10° N
Spot 2 Rocket 3.7 20:44:03 11° S 20:48:53 71° WSW 20:53:57 10° NNW
SPOT 1/Viking Rocket 3.5 20:45:17 14° SSE 20:49:45 86° ENE 20:54:56 10° NNW
Cosmos 2151 Rocket 4.4 20:45:24 10° NNW 20:49:47 50° W 20:54:09 10° SSW
Abrixas rocket 2.0 20:47:26 10° WNW 20:50:21 58° SSW 20:51:50 25° SE
CARTOSAT-1 3.8 20:47:49 18° SSE 20:50:55 58° ENE 20:55:10 10° N
NOSS 8 (H) 4.2 20:48:28 10° SW 20:51:39 82° NW 20:54:42 10° NE
STARLINK-1106 3.6 20:47:41 10° WNW 20:51:52 81° NNE 20:54:56 17° ESE
STARLINK-1112 3.6 20:52:38 10° WNW 20:56:49 86° NE 20:59:41 19° ESE
Aureole 2 4.3 20:55:56 10° NNW 20:59:01 64° WSW 21:00:36 24° S
STARLINK-1128 3.6 20:57:37 10° WNW 21:01:47 88° SSW 21:04:28 21° ESE
Cosmos 1331 Rocket 3.9 20:58:52 10° SSW 21:04:01 80° ESE 21:09:14 10° NNE
Aureole 2 Rocket 3.2 21:01:54 10° SW 21:04:54 44° WNW 21:07:47 10° N
STARLINK-1113 3.5 21:02:36 10° WNW 21:06:46 83° SSW 21:09:15 23° SE
Cosmos 1733 3.6 21:04:02 10° N 21:07:45 47° ENE 21:09:32 26° SE
Cosmos 1437 Rocket 4.2 21:06:14 10° SW 21:09:46 36° WNW 21:13:20 10° N
COSMOS 2455 4.5 21:09:44 14° ESE 21:10:40 15° ESE 21:13:49 10° ENE
STARLINK-1119 3.6 21:07:37 10° WNW 21:11:46 77° SSW 21:14:04 25° SE
Cosmos 1378 3.0 21:09:41 20° S 21:12:11 83° E 21:15:55 10° N
Cosmos 1302 Rocket 4.2 21:10:14 17° S 21:14:09 53° ESE 21:19:19 10° NNE
Cosmos 1271 Rocket 4.4 21:14:22 18° ESE 21:15:05 19° E 21:17:50 10° NE
USA 215 4.5 21:09:56 10° E 21:15:56 40° NNE 21:21:56 10° NW
ISS -1.3 21:14:44 10° WSW 21:16:10 12° SW 21:17:02 11° SSW
Cosmos 1242 Rocket 3.8 21:15:26 23° ESE 21:16:10 25° E 21:19:15 10° NE
STARLINK-1114 3.6 21:12:34 10° WNW 21:16:43 72° SSW 21:18:49 28° SE
MTI 4.3 21:15:23 10° NNE 21:18:22 39° E 21:18:58 34° SE
STARLINK-60 4.4 21:20:10 22° E 21:20:10 22° E 21:21:40 10° ENE
Lacrosse 5 3.8 21:15:42 10° W 21:19:08 18° WSW 21:22:07 11° SSW
Cosmos 1092 Rocket 3.9 21:15:31 17° S 21:20:23 73° E 21:26:32 10° NNE
NOSS 2-2 (D) 3.3 21:17:54 10° SW 21:21:28 73° NW 21:25:28 10° NE
STARLINK-1130 (DARKSAT) 3.6 21:17:34 10° WNW 21:21:42 67° SW 21:23:37 30° SE
CENTAUR R/B 3.5 21:16:11 10° NW 21:24:03 62° NE 21:31:08 17° ESE
Cosmos 1707 4.4 21:24:35 18° E 21:25:12 19° E 21:27:59 10° NE
STARLINK-1084 3.7 21:22:34 10° WNW 21:26:40 62° SW 21:28:24 32° SSE
ATLAS 3B R/B 3.9 21:20:53 10° NNW 21:27:02 35° NE 21:33:19 10° E
SL-27 R/B 2.8 21:24:42 10° NNW 21:28:15 56° ENE 21:29:28 35° SE
NOSS 3-2 (C) 4.2 21:21:53 10° NW 21:29:21 70° NE 21:35:37 19° SE
Cosmos 1766 3.4 21:26:48 10° NNW 21:30:46 70° W 21:32:47 28° S
STARLINK-1098 3.8 21:27:33 10° WNW 21:31:38 57° SW 21:33:11 34° SSE
Cosmos 1726 4.3 21:29:32 10° NNE 21:31:42 15° ENE 21:32:50 13° E
Cosmos 2195 Rocket 4.5 21:30:46 19° S 21:35:29 82° E 21:41:47 10° N
STARLINK-1123 3.9 21:32:32 10° WNW 21:36:34 52° SW 21:37:57 35° SSE
Cosmos 1943 Rocket 2.1 21:31:48 10° SSW 21:37:21 87° ESE 21:42:59 10° NNE
NOSS 3-4 (A) 4.0 21:36:32 26° SSE 21:38:53 36° ESE 21:44:28 10° NE
NOSS 3-4 (C) 4.0 21:36:40 26° SSE 21:38:59 35° ESE 21:44:35 10° NE
STARLINK-1097 4.0 21:37:34 10° WNW 21:41:34 48° SW 21:42:45 36° S
Cosmos 2082 Rocket 4.3 21:39:31 10° WNW 21:43:09 18° W 21:46:45 10° SW
SeaSat 1 3.4 21:39:24 10° NE 21:43:41 29° ESE 21:44:34 27° SE
EO 1 Del DPAF 4.3 21:40:51 10° NE 21:44:10 28° E 21:44:29 28° ESE
STARLINK-1099 4.1 21:42:33 10° WNW 21:46:31 44° SW 21:47:31 37° S
Cosmos 1975 Rocket 3.1 21:44:36 25° SSW 21:47:11 76° W 21:51:36 10° N
STARLINK-1212 4.1 21:46:15 10° NW 21:49:13 38° NNE 21:50:47 22° ENE
STARLINK-1105 4.1 21:46:44 10° NW 21:49:40 38° NNE 21:51:13 22° ENE
STARLINK-1247 4.1 21:47:36 10° NW 21:50:34 39° NNE 21:52:06 22° ENE
Cosmos 292 Rocket 3.7 21:48:20 29° S 21:50:42 67° ESE 21:55:33 10° NNE
STARLINK-1227 4.1 21:48:05 10° NW 21:51:03 39° NNE 21:52:32 23° ENE
BREEZE-M DEB (TANK) 3.7 21:35:36 10° WSW 21:51:06 86° NNW 21:55:02 10° ENE
STARLINK-1104 4.2 21:47:33 10° WNW 21:51:28 41° SW 21:52:18 36° S
STARLINK-1226 4.1 21:48:57 10° NW 21:51:55 39° NNE 21:53:23 23° ENE
BREEZE-M DEB (TANK) 3.5 21:48:14 10° WNW 21:52:12 57° N 21:55:56 10° E
STARLINK-1215 4.1 21:49:51 10° NW 21:52:49 40° NNE 21:54:16 24° ENE
Cosmos 2369 Rocket 2.1 21:49:04 17° SSW 21:53:33 85° ESE 21:59:13 10° NNE
STARLINK-1217 4.0 21:51:40 10° NW 21:54:39 41° NNE 21:56:00 25° ENE
S3M 4.4 21:49:04 10° N 21:55:04 51° ENE 21:58:11 28° SE
STARLINK-1229 4.0 21:52:34 10° NW 21:55:34 41° NNE 21:56:54 26° ENE
STARLINK-1144 4.3 21:52:34 10° WNW 21:56:25 38° SW 21:57:05 35° SSW
STARLINK-1270 4.0 21:53:27 10° NW 21:56:28 42° NNE 21:57:45 26° ENE
SPOT 5 4.1 21:53:31 19° SSW 21:56:51 40° W 22:01:53 10° NNW
STARLINK-1189 3.9 21:55:15 10° NW 21:58:15 43° NNE 21:59:28 28° ENE
Aureole 3 Rocket 4.4 21:52:32 10° N 21:58:50 82° E 22:03:54 27° SSE
STARLINK-1188 3.9 21:56:09 10° NW 21:59:10 43° NNE 22:00:22 28° ENE
ATLAS CENTAUR R/B 2.3 21:59:35 31° ESE 21:59:35 31° ESE 22:03:09 10° NE
STARLINK-1187 3.7 21:57:15 10° NW 22:00:16 47° NNE 22:01:14 33° ENE
STARLINK-1103 4.4 21:57:35 10° WNW 22:01:22 35° SW 22:01:51 34° SSW
Cosmos 1340 Rocket 4.1 21:57:48 10° N 22:01:25 30° ENE 22:02:31 26° E
STARLINK-1191 3.8 21:58:36 10° NW 22:01:36 44° NNE 22:02:39 31° ENE
STARLINK-1221 3.8 21:59:33 10° NW 22:02:33 45° NNE 22:03:35 31° ENE
ERS-1 Rocket 4.4 21:59:40 15° SSW 22:02:55 29° W 22:07:19 10° NW
STARLINK-1222 3.8 22:00:24 10° NW 22:03:24 45° NNE 22:04:23 32° ENE
Cosmos 1025 Rocket 3.2 22:02:57 42° SE 22:04:03 55° E 22:08:16 10° NNE
STARLINK-1214 3.8 22:01:17 10° NW 22:04:19 46° NNE 22:05:15 33° ENE
Okean 2 4.4 22:02:00 19° SW 22:04:37 42° WNW 22:08:36 10° N
Cosmos 2026 Rocket 4.2 22:00:23 20° SSW 22:04:52 72° W 22:11:15 10° N
Thor Agena Rocket 3.7 21:59:52 10° NNE 22:05:07 59° ESE 22:07:12 35° SSE
EXPRESS MD2 4.4 22:01:23 10° W 22:05:15 66° N 22:13:19 10° ENE
ATLAS 2AS CENTAUR R/B 3.1 22:00:30 17° SSW 22:06:53 64° ESE 22:14:44 10° NE
Cosmos 1656 Rocket 3.8 22:04:50 33° S 22:07:12 57° ESE 22:12:40 10° NNE
BREEZE M DEB (TANK) 2.8 22:04:17 10° W 22:07:35 48° NNW 22:08:32 26° NE
Cosmos 1553 Rocket 3.9 22:02:19 10° N 22:08:39 84° E 22:11:43 32° SSE
BREEZE-M DEB (TANK) 4.0 21:56:14 10° WNW 22:09:42 82° SSW 22:11:56 30° ESE
Cosmos 1953 2.9 22:06:01 10° N 22:09:51 43° ENE 22:10:41 37° ESE
STARLINK-1228 3.4 22:06:43 10° WNW 22:10:12 66° NNE 22:11:08 44° E
NOSS 3-2 (A) 4.3 22:03:13 10° NW 22:10:38 57° WSW 22:15:10 28° S
Cosmos 1470 2.7 22:07:05 10° NNW 22:10:58 80° W 22:11:51 51° S
APEX 4.2 22:06:47 18° SSW 22:11:43 87° ESE 22:17:07 10° NNE
STARLINK-1235 3.3 22:09:26 10° NW 22:12:39 64° NNE 22:13:12 52° ENE
Cosmos 2292 Rocket 4.3 22:13:24 27° E 22:13:24 27° E 22:16:09 10° NNE
Cosmos 968 Rocket 3.4 22:10:27 10° NNW 22:15:37 77° WSW 22:17:31 39° S
Cosmos 1455 Rocket 3.8 22:13:41 10° NNW 22:17:48 43° W 22:19:25 30° SW
Cosmos 1655 Rocket 4.0 22:15:02 33° SSE 22:17:54 67° E 22:24:08 10° NNE
SL-4 R/B 3.3 22:20:18 15° NE 22:20:18 15° NE 22:21:03 10° NNE
ATLAS 5 CENTAUR R/B 1.6 22:21:46 60° SSE 22:21:54 60° SE 22:24:18 10° NE
USA 238 DEB 4.4 22:15:32 10° NW 22:22:23 47° WSW 22:25:51 29° S
USA 238 4.3 22:15:37 10° NW 22:22:29 47° WSW 22:25:58 29° S
Cosmos 1758 3.5 22:20:26 10° NNW 22:24:28 65° W 22:25:25 48° SSW
Terra 3.4 22:23:15 19° SW 22:25:33 27° W 22:29:36 10° NW
SL-4 R/B 2.3 22:21:15 10° WSW 22:26:04 86° SSE 22:30:56 10° ENE
Cosmos 2228 4.3 22:23:49 10° NNE 22:27:31 28° ENE 22:28:36 25° E
STARLINK-1234 3.0 22:27:11 10° WNW 22:30:16 79° WNW 22:30:16 79° WNW
In-Cosmos 22 4.2 22:30:05 40° SSE 22:31:44 59° E 22:36:56 10° NNE
Cosmos 1503 Rocket 4.1 22:30:28 10° NNW 22:35:46 73° WSW 22:37:35 42° S
Cosmos 2266 Rocket 4.0 22:33:43 37° SSE 22:36:11 67° E 22:42:10 10° NNE
STARLINK-1209 3.2 22:33:21 10° WNW 22:36:13 63° W 22:36:13 63° W
Meteor 2-8 Rocket 4.5 22:35:19 10° NNW 22:41:28 75° W 22:44:07 36° S
SJ 16-02 4.1 22:42:07 10° NNE 22:43:17 11° NE 22:44:27 10° ENE
STARLINK-1238 4.4 22:41:48 10° NW 22:45:50 49° NNE 22:48:47 17° E
Cosmos 1536 Rocket 3.9 22:45:44 40° SW 22:47:01 59° W 22:51:21 10° N
Cosmos 1674 3.1 22:48:20 47° E 22:48:22 47° E 22:52:02 10° NNE
Cosmos 1271 Rocket 4.0 22:49:29 27° WSW 22:50:48 35° WNW 22:54:27 10° N
STARLINK-1201 4.3 22:46:46 10° NW 22:50:50 52° NNE 22:53:33 19° E
STARLINK-60 4.1 22:52:21 14° W 22:54:50 43° NNW 22:57:54 10° NE
Spot 4 4.2 22:53:29 40° SSW 22:54:50 53° W 22:59:36 10° NNW
Cosmos 1354 Rocket 4.3 22:49:52 10° NNW 22:55:03 56° WSW 22:56:35 41° SSW
COSMOS 2455 2.8 22:52:50 33° SSW 22:55:40 84° ESE 23:01:44 10° NE
STARLINK-1206 4.2 22:51:46 10° NW 22:55:50 55° NNE 22:58:21 22° E
Cosmos 883 Rocket 4.4 22:50:22 10° N 22:56:32 88° E 22:58:57 40° S
USA 215 3.3 22:52:56 15° ESE 22:58:29 78° NNE 23:05:02 10° NW
STARLINK-1205 4.1 22:56:43 10° WNW 23:00:49 58° NNE 23:03:07 24° E
Cosmos 1707 4.0 22:59:44 28° WSW 23:00:50 34° WNW 23:04:25 10° N
Cosmos 2297 Rocket 3.8 22:57:28 10° N 23:02:20 29° NE 23:07:00 11° ESE
Helios 1A 3.4 23:01:35 44° ESE 23:02:28 54° ENE 23:06:34 10° N
Lacrosse 4 Rocket 4.4 23:03:46 10° N 23:05:33 12° NE 23:07:18 10° ENE
STARLINK-1218 4.0 23:01:43 10° WNW 23:05:50 61° NNE 23:07:55 27° E
Cosmos 1174 3.7 23:06:36 59° WNW 23:06:50 61° NW 23:10:34 10° NNE
Cosmos 1726 2.8 23:03:36 10° NNW 23:07:09 43° W 23:07:20 42° WSW
ALOS 2 2.6 23:07:47 57° SSW 23:08:34 73° WSW 23:12:58 10° NNW
Timation 2 Rocket 4.0 23:03:40 10° NNW 23:10:00 72° ENE 23:12:55 33° SE
STARLINK-1254 3.9 23:06:41 10° WNW 23:10:49 65° NNE 23:12:41 30° E
Cosmos 2058 Rocket 3.9 23:06:38 10° N 23:10:52 42° ENE 23:11:58 36° ESE
COSMOS 2487 3.2 23:07:35 10° NNW 23:10:32 42° W 23:10:32 42° W
CENTAUR R/B 3.7 23:07:10 10° NW 23:14:47 44° WSW 23:18:17 31° SSW
STARLINK-1231 3.8 23:11:39 10° WNW 23:15:48 69° NNE 23:17:27 34° E
Meteor 2-5 Rocket 3.8 23:14:12 43° SSE 23:15:53 63° E 23:21:27 10° NNE
Meteor 1-16 Rocket 4.4 23:10:49 10° NNW 23:16:10 55° W 23:17:49 39° SSW
Cosmos 1867 4.1 23:12:44 10° NW 23:17:49 41° WSW 23:18:45 37° SW
ATLAS 3B R/B 2.7 23:11:27 10° NW 23:18:13 70° WSW 23:21:10 37° SSE
SL-14 R/B 4.0 23:19:11 38° E 23:19:16 38° E 23:22:51 10° NNE
FALCON 9 DEB 3.3 23:20:07 68° NNE 23:20:07 68° NNE 23:23:14 10° ENE
STARLINK-1379 4.3 23:21:51 36° E 23:21:51 36° E 23:24:23 10° ENE
STARLINK-1232 3.7 23:16:39 10° WNW 23:20:48 73° NNE 23:22:15 39° ESE
Cosmos 1606 Rocket 3.4 23:16:37 10° NNW 23:20:58 79° W 23:21:36 63° SSW
SeaSat 1 3.3 23:16:38 10° NNE 23:21:20 46° NW 23:24:20 21° WSW
STARLINK-1329 4.3 23:23:14 37° E 23:23:14 37° E 23:25:51 10° ENE
Cosmos 2098 Rocket 4.4 23:20:08 35° SSW 23:23:31 83° W 23:31:04 10° N
STARLINK-29 3.9 23:24:02 39° WNW 23:24:42 46° NNW 23:27:49 10° NE
STARLINK-1362 4.1 23:26:40 42° E 23:26:40 42° E 23:29:26 10° ENE
STARLINK-1208 3.6 23:21:36 10° WNW 23:25:46 77° NNE 23:27:00 44° ESE
ATLAS CENTAUR R/B 3.1 23:26:14 10° NNW 23:28:14 27° NE 23:31:36 10° E
STARLINK-1373 3.9 23:30:05 46° E 23:30:05 46° E 23:33:02 10° ENE
NOSS 3-4 (A) 4.2 23:23:52 11° WSW 23:29:33 51° NW 23:35:49 10° NE
NOSS 3-4 (C) 4.2 23:24:01 11° WSW 23:29:38 51° NW 23:35:55 10° NE
RESURS DK-1 2.2 23:29:48 68° SW 23:30:19 87° WNW 23:34:29 10° NNE
STARLINK-1365 3.8 23:31:12 51° E 23:31:12 51° E 23:34:18 10° ENE
STARLINK-1271 3.6 23:26:37 10° WNW 23:30:46 82° NNE 23:31:49 50° ESE
STARLINK-1390 3.8 23:33:34 51° E 23:33:34 51° E 23:36:40 10° ENE
Cosmos 2084 3.4 23:33:36 61° SSW 23:34:21 84° SE 23:38:51 10° NE
Cosmos 2315 Rocket 4.2 23:28:34 10° NNW 23:34:40 60° W 23:36:59 38° SSW
STARLINK-1154 3.5 23:31:35 10° WNW 23:35:45 88° NNE 23:36:35 56° ESE
BREEZE-M R/B 3.6 23:31:45 24° SW 23:35:53 59° SSE 23:39:47 10° ENE
Cosmos 1626 2.2 23:36:00 63° E 23:36:01 63° E 23:39:43 10° NNE
Cosmos 1340 Rocket 4.4 23:34:28 10° NW 23:37:44 24° W 23:38:06 23° W
ATLAS CENTAUR R/B 2.8 23:35:42 19° WSW 23:38:17 35° NW 23:42:05 10° NNE
Cosmos 2369 Rocket 4.4 23:34:09 10° W 23:38:18 20° NW 23:42:27 10° N
Okean 1-7 Rocket 3.6 23:37:39 59° SSE 23:38:26 77° E 23:42:58 10° NNE
Cosmos 2227 Rocket 3.1 23:34:03 10° NNW 23:39:30 44° NE 23:43:29 17° ESE
STARLINK-1197 3.5 23:36:33 10° WNW 23:40:42 87° SSW 23:41:21 63° SE
Nadezhda 2 Rocket 4.4 23:39:44 41° SSW 23:42:03 85° W 23:48:15 10° N
Cosmos 1908 4.0 23:38:52 10° NNW 23:42:25 37° W 23:42:29 37° W
CZ-4 R/B 4.1 23:38:11 10° NNE 23:42:52 54° E 23:43:50 45° SE
STARLINK-1198 3.4 23:41:31 10° WNW 23:45:41 82° SSW 23:46:07 69° SE
Cosmos 1953 4.4 23:43:25 10° NW 23:45:52 16° W 23:46:22 16° W
STARLINK-1199 3.4 23:46:31 10° WNW 23:50:40 76° SSW 23:50:55 72° S
Landsat 4 3.8 23:47:02 10° N 23:50:43 63° WNW 23:51:00 61° W
Meteor 2-21 Rocket 4.4 23:50:06 40° S 23:52:27 82° E 23:58:41 10° N
STARLINK-1210 3.4 23:51:30 10° WNW 23:55:38 71° SW 23:55:41 70° SSW
